Time,TemperatureF,DewpointF,PressureIn,WindDirection,WindDirectionDegrees,WindSpeedMPH,WindSpeedGustMPH,Humidity,HourlyPrecipIn,Conditions,Clouds,dailyrainin,SoftwareType,DateUTC
2013-07-10 00:04:00,68.6,55.0,29.64,East,90,0.0,0.0,62,0.00,,,0.00,WUHU216HW,2013-07-10 07:04:00,
2013-07-10 00:09:00,68.6,55.0,29.64,East,90,0.0,0.0,62,0.00,,,0.00,WUHU216HW,2013-07-10 07:09:00,
2013-07-10 00:30:00,67.3,54.3,29.64,SW,225,0.7,0.7,63,0.00,,,0.00,WUHU216HW,2013-07-10 07:30:00,
2013-07-10 00:35:00,67.3,54.3,29.65,SW,225,1.6,1.6,63,0.00,,,0.00,WUHU216HW,2013-07-10 07:35:00,
2013-07-10 00:40:00,67.3,54.3,29.65,SW,225,1.6,1.6,63,0.00,,,0.00,WUHU216HW,2013-07-10 07:40:00,
2013-07-10 00:59:00,66.2,54.1,29.65,NE,45,0.0,0.0,65,0.00,,,0.00,WUHU216HW,2013-07-10 07:59:00,
2013-07-10 01:04:00,66.2,54.1,29.65,NE,45,0.0,0.0,65,0.00,,,0.00,WUHU216HW,2013-07-10 08:04:00,
2013-07-10 01:09:00,66.2,54.1,29.65,NE,45,0.0,0.0,65,0.00,,,0.00,WUHU216HW,2013-07-10 08:09:00,
2013-07-10 01:30:00,65.0,52.9,29.65,SE,135,0.0,0.0,65,0.00,,,0.00,WUHU216HW,2013-07-10 08:30:00,
2013-07-10 01:35:00,65.0,53.3,29.64,SE,135,0.0,0.0,66,0.00,,,0.00,WUHU216HW,2013-07-10 08:35:00,
2013-07-10 01:40:00,65.0,53.3,29.64,SE,135,0.0,0.0,66,0.00,,,0.00,WUHU216HW,2013-07-10 08:40:00,
2013-07-10 01:59:00,64.1,52.9,29.64,ESE,113,0.0,0.0,67,0.00,,,0.00,WUHU216HW,2013-07-10 08:59:00,
2013-07-10 02:04:00,64.1,52.9,29.64,ESE,113,0.0,0.0,67,0.00,,,0.00,WUHU216HW,2013-07-10 09:04:00,
2013-07-10 02:09:00,64.1,52.9,29.64,ESE,113,0.0,0.0,67,0.00,,,0.00,WUHU216HW,2013-07-10 09:09:00,
2013-07-10 02:30:00,62.8,52.1,29.64,SE,135,0.0,0.0,68,0.00,,,0.00,WUHU216HW,2013-07-10 09:30:00,
2013-07-10 02:35:00,63.0,52.3,29.64,SE,135,0.9,0.9,68,0.00,,,0.00,WUHU216HW,2013-07-10 09:35:00,
2013-07-10 02:40:00,63.0,52.3,29.64,SE,135,0.9,0.9,68,0.00,,,0.00,WUHU216HW,2013-07-10 09:40:00,
2013-07-10 02:59:00,61.7,51.5,29.64,SE,135,0.4,0.4,69,0.00,,,0.00,WUHU216HW,2013-07-10 09:59:00,
2013-07-10 03:04:00,61.7,51.5,29.64,SSE,158,0.4,0.4,69,0.00,,,0.00,WUHU216HW,2013-07-10 10:04:00,
2013-07-10 03:09:00,61.7,51.5,29.64,SSE,158,0.4,0.4,69,0.00,,,0.00,WUHU216HW,2013-07-10 10:09:00,
2013-07-10 03:30:00,60.7,50.9,29.65,SSE,158,0.0,0.0,70,0.00,,,0.00,WUHU216HW,2013-07-10 10:30:00,
2013-07-10 03:35:00,60.8,51.1,29.65,SSE,158,0.0,0.0,70,0.00,,,0.00,WUHU216HW,2013-07-10 10:35:00,
2013-07-10 03:40:00,60.8,51.1,29.65,SSE,158,0.0,0.0,70,0.00,,,0.00,WUHU216HW,2013-07-10 10:40:00,
2013-07-10 03:59:00,60.1,50.8,29.65,ESE,113,0.7,0.7,71,0.00,,,0.00,WUHU216HW,2013-07-10 10:59:00,
2013-07-10 04:04:00,60.1,50.8,29.65,ESE,113,0.7,0.7,71,0.00,,,0.00,WUHU216HW,2013-07-10 11:04:00,
2013-07-10 04:09:00,60.1,50.8,29.65,ESE,113,0.7,0.7,71,0.00,,,0.00,WUHU216HW,2013-07-10 11:09:00,
2013-07-10 04:30:00,59.2,50.2,29.65,SE,135,0.0,0.0,72,0.00,,,0.00,WUHU216HW,2013-07-10 11:30:00,
2013-07-10 04:35:00,59.2,50.2,29.65,SE,135,0.0,0.0,72,0.00,,,0.00,WUHU216HW,2013-07-10 11:35:00,
2013-07-10 04:40:00,59.2,50.2,29.65,SE,135,0.0,0.0,72,0.00,,,0.00,WUHU216HW,2013-07-10 11:40:00,
2013-07-10 04:59:00,58.9,50.2,29.66,SE,135,1.1,1.1,73,0.00,,,0.00,WUHU216HW,2013-07-10 11:59:00,
2013-07-10 05:05:00,58.9,50.2,29.66,East,90,1.1,1.1,73,0.00,,,0.00,WUHU216HW,2013-07-10 12:05:00,
2013-07-10 05:09:00,58.9,50.2,29.66,East,90,1.1,1.1,73,0.00,,,0.00,WUHU216HW,2013-07-10 12:09:00,
2013-07-10 05:30:00,58.3,49.7,29.66,East,90,0.0,0.0,73,0.00,,,0.00,WUHU216HW,2013-07-10 12:30:00,
2013-07-10 05:35:00,58.3,49.7,29.66,East,90,0.0,0.0,73,0.00,,,0.00,WUHU216HW,2013-07-10 12:35:00,
2013-07-10 05:40:00,58.3,49.7,29.66,East,90,0.0,0.0,73,0.00,,,0.00,WUHU216HW,2013-07-10 12:40:00,
2013-07-10 06:00:00,58.1,49.9,29.66,SSE,158,0.0,0.0,74,0.00,,,0.00,WUHU216HW,2013-07-10 13:00:00,
2013-07-10 06:05:00,58.0,49.7,29.66,SSE,158,0.0,0.0,74,0.00,,,0.00,WUHU216HW,2013-07-10 13:05:00,
2013-07-10 06:10:00,58.0,49.7,29.66,SSE,158,0.0,0.0,74,0.00,,,0.00,WUHU216HW,2013-07-10 13:10:00,
2013-07-10 06:30:00,58.3,50.0,29.66,East,90,0.7,0.7,74,0.00,,,0.00,WUHU216HW,2013-07-10 13:30:00,
2013-07-10 06:35:00,58.3,50.0,29.66,ESE,113,0.4,0.7,74,0.00,,,0.00,WUHU216HW,2013-07-10 13:35:00,
2013-07-10 06:40:00,58.3,50.0,29.66,ESE,113,0.4,0.7,74,0.00,,,0.00,WUHU216HW,2013-07-10 13:40:00,
2013-07-10 06:59:00,69.5,57.6,29.67,ESE,113,0.2,0.2,66,0.00,,,0.00,WUHU216HW,2013-07-10 13:59:00,
2013-07-10 07:00:00,69.5,57.6,29.67,ESE,113,0.2,0.2,66,0.00,,,0.00,WUHU216HW,2013-07-10 14:00:00,
2013-07-10 07:05:00,69.7,57.8,29.67,ESE,113,0.2,0.2,66,0.00,,,0.00,WUHU216HW,2013-07-10 14:05:00,
2013-07-10 07:10:00,69.7,57.8,29.67,ESE,113,0.2,0.2,66,0.00,,,0.00,WUHU216HW,2013-07-10 14:10:00,
2013-07-10 07:30:00,72.0,56.9,29.67,SE,135,3.1,3.1,59,0.00,,,0.00,WUHU216HW,2013-07-10 14:30:00,
2013-07-10 07:35:00,72.2,57.1,29.67,ENE,68,1.8,3.1,59,0.00,,,0.00,WUHU216HW,2013-07-10 14:35:00,
2013-07-10 07:40:00,72.2,57.1,29.67,ENE,68,1.8,3.1,59,0.00,,,0.00,WUHU216HW,2013-07-10 14:40:00,
2013-07-10 07:59:00,76.7,57.2,29.68,SW,225,2.2,2.2,51,0.00,,,0.00,WUHU216HW,2013-07-10 14:59:00,
2013-07-10 08:04:00,76.7,57.2,29.68,WSW,248,1.6,2.2,51,0.00,,,0.00,WUHU216HW,2013-07-10 15:04:00,
2013-07-10 08:09:00,76.7,57.2,29.68,WSW,248,1.6,1.6,51,0.00,,,0.00,WUHU216HW,2013-07-10 15:09:00,
2013-07-10 08:30:00,77.9,56.1,29.68,WSW,248,0.7,0.7,47,0.00,,,0.00,WUHU216HW,2013-07-10 15:30:00,
2013-07-10 08:35:00,77.9,56.6,29.68,WNW,293,1.8,1.8,48,0.00,,,0.00,WUHU216HW,2013-07-10 15:35:00,
2013-07-10 08:40:00,77.9,56.6,29.68,WNW,293,1.8,1.8,48,0.00,,,0.00,WUHU216HW,2013-07-10 15:40:00,
2013-07-10 08:59:00,78.8,56.9,29.68,North,0,1.8,1.8,47,0.00,,,0.00,WUHU216HW,2013-07-10 15:59:00,
2013-07-10 09:04:00,78.8,56.9,29.68,NW,315,3.1,3.1,47,0.00,,,0.00,WUHU216HW,2013-07-10 16:04:00,
2013-07-10 09:09:00,78.8,56.9,29.68,NW,315,3.1,3.1,47,0.00,,,0.00,WUHU216HW,2013-07-10 16:09:00,
2013-07-10 09:30:00,81.7,57.6,29.68,NE,45,2.0,2.0,44,0.00,,,0.00,WUHU216HW,2013-07-10 16:30:00,
2013-07-10 09:35:00,81.7,57.6,29.68,NE,45,0.7,2.0,44,0.00,,,0.00,WUHU216HW,2013-07-10 16:35:00,
2013-07-10 09:40:00,81.7,57.6,29.68,NE,45,0.7,2.0,44,0.00,,,0.00,WUHU216HW,2013-07-10 16:40:00,
2013-07-10 09:59:00,83.7,58.8,29.68,East,90,2.2,2.2,43,0.00,,,0.00,WUHU216HW,2013-07-10 16:59:00,
2013-07-10 10:04:00,83.9,59.0,29.68,East,90,2.2,2.2,43,0.00,,,0.00,WUHU216HW,2013-07-10 17:04:00,
2013-07-10 10:09:00,83.9,59.0,29.68,East,90,2.2,2.2,43,0.00,,,0.00,WUHU216HW,2013-07-10 17:09:00,
2013-07-10 10:30:00,82.1,58.0,29.66,ESE,113,1.1,1.1,44,0.00,,,0.00,WUHU216HW,2013-07-10 17:30:00,
2013-07-10 10:35:00,82.3,58.1,29.66,North,0,1.6,2.2,44,0.00,,,0.00,WUHU216HW,2013-07-10 17:35:00,
2013-07-10 10:40:00,82.3,58.1,29.66,North,0,1.6,2.2,44,0.00,,,0.00,WUHU216HW,2013-07-10 17:40:00,
2013-07-10 11:00:00,83.0,58.2,29.66,ESE,113,2.0,2.0,43,0.00,,,0.00,WUHU216HW,2013-07-10 18:00:00,
2013-07-10 11:05:00,83.0,58.2,29.66,ENE,68,2.0,2.0,43,0.00,,,0.00,WUHU216HW,2013-07-10 18:05:00,
2013-07-10 11:10:00,83.0,58.2,29.66,ENE,68,2.0,2.0,43,0.00,,,0.00,WUHU216HW,2013-07-10 18:10:00,
2013-07-10 11:30:00,82.8,58.0,29.65,SSW,203,1.1,1.1,43,0.00,,,0.00,WUHU216HW,2013-07-10 18:30:00,
2013-07-10 11:35:00,82.8,58.0,29.65,WSW,248,2.5,2.5,43,0.00,,,0.00,WUHU216HW,2013-07-10 18:35:00,
2013-07-10 11:40:00,82.8,58.0,29.65,WSW,248,2.5,2.5,43,0.00,,,0.00,WUHU216HW,2013-07-10 18:40:00,
2013-07-10 11:59:00,83.0,57.5,29.64,ENE,68,0.4,0.4,42,0.00,,,0.00,WUHU216HW,2013-07-10 18:59:00,
2013-07-10 12:04:00,83.0,57.5,29.64,ENE,68,0.4,0.4,42,0.00,,,0.00,WUHU216HW,2013-07-10 19:04:00,
2013-07-10 12:09:00,83.0,57.5,29.64,ENE,68,0.4,0.4,42,0.00,,,0.00,WUHU216HW,2013-07-10 19:09:00,
2013-07-10 12:30:00,82.4,58.2,29.63,WSW,248,2.9,2.9,44,0.00,,,0.00,WUHU216HW,2013-07-10 19:30:00,
2013-07-10 12:35:00,82.6,58.4,29.63,WSW,248,8.7,8.7,44,0.00,,,0.00,WUHU216HW,2013-07-10 19:35:00,
2013-07-10 12:40:00,82.6,58.4,29.63,WSW,248,8.7,8.7,44,0.00,,,0.00,WUHU216HW,2013-07-10 19:40:00,
2013-07-10 12:59:00,81.4,57.2,29.62,ENE,68,4.7,4.7,44,0.00,,,0.00,WUHU216HW,2013-07-10 19:59:00,
2013-07-10 13:04:00,81.5,57.4,29.62,ENE,68,4.7,4.7,44,0.00,,,0.00,WUHU216HW,2013-07-10 20:04:00,
2013-07-10 13:09:00,81.5,57.4,29.62,ENE,68,4.7,4.7,44,0.00,,,0.00,WUHU216HW,2013-07-10 20:09:00,
2013-07-10 13:30:00,82.4,57.1,29.61,NNE,23,2.5,2.5,42,0.00,,,0.00,WUHU216HW,2013-07-10 20:30:00,
2013-07-10 13:35:00,82.3,56.9,29.62,NNE,23,2.5,2.5,42,0.00,,,0.00,WUHU216HW,2013-07-10 20:35:00,
2013-07-10 13:40:00,82.3,56.9,29.62,NNE,23,2.5,2.5,42,0.00,,,0.00,WUHU216HW,2013-07-10 20:40:00,
2013-07-10 13:59:00,81.7,56.3,29.60,NE,45,0.4,0.4,42,0.00,,,0.00,WUHU216HW,2013-07-10 20:59:00,
2013-07-10 14:04:00,81.7,56.3,29.60,ESE,113,0.9,0.9,42,0.00,,,0.00,WUHU216HW,2013-07-10 21:04:00,
2013-07-10 14:09:00,81.7,56.3,29.60,ESE,113,0.9,0.9,42,0.00,,,0.00,WUHU216HW,2013-07-10 21:09:00,
2013-07-10 14:30:00,81.9,55.9,29.59,NNW,338,2.9,2.9,41,0.00,,,0.00,WUHU216HW,2013-07-10 21:30:00,
2013-07-10 14:35:00,81.9,55.9,29.59,NNW,338,1.3,2.9,41,0.00,,,0.00,WUHU216HW,2013-07-10 21:35:00,
2013-07-10 14:40:00,81.9,55.9,29.59,NNW,338,1.3,1.3,41,0.00,,,0.00,WUHU216HW,2013-07-10 21:40:00,
2013-07-10 14:59:00,82.8,57.3,29.58,SSW,203,0.9,0.9,42,0.00,,,0.00,WUHU216HW,2013-07-10 21:59:00,
2013-07-10 15:04:00,82.8,57.3,29.58,SW,225,0.7,0.9,42,0.00,,,0.00,WUHU216HW,2013-07-10 22:04:00,
2013-07-10 15:09:00,82.8,57.3,29.58,SW,225,0.7,0.7,42,0.00,,,0.00,WUHU216HW,2013-07-10 22:09:00,
2013-07-10 15:30:00,83.0,56.9,29.57,SW,225,1.3,1.3,41,0.00,,,0.00,WUHU216HW,2013-07-10 22:30:00,
2013-07-10 15:35:00,83.0,56.9,29.57,SW,225,1.3,1.3,41,0.00,,,0.00,WUHU216HW,2013-07-10 22:35:00,
2013-07-10 15:40:00,83.0,56.9,29.57,SW,225,1.3,1.3,41,0.00,,,0.00,WUHU216HW,2013-07-10 22:40:00,
2013-07-10 15:59:00,83.5,56.8,29.56,SSW,203,0.4,0.4,40,0.00,,,0.00,WUHU216HW,2013-07-10 22:59:00,
2013-07-10 16:04:00,83.3,56.6,29.56,NE,45,2.5,2.5,40,0.00,,,0.00,WUHU216HW,2013-07-10 23:04:00,
2013-07-10 16:09:00,83.3,56.6,29.56,NE,45,2.5,2.5,40,0.00,,,0.00,WUHU216HW,2013-07-10 23:09:00,
2013-07-10 16:30:00,83.9,57.1,29.55,ENE,68,2.5,2.5,40,0.00,,,0.00,WUHU216HW,2013-07-10 23:30:00,
2013-07-10 16:35:00,83.9,57.1,29.55,ENE,68,2.5,2.5,40,0.00,,,0.00,WUHU216HW,2013-07-10 23:35:00,
2013-07-10 16:40:00,83.9,57.1,29.55,ENE,68,2.5,2.5,40,0.00,,,0.00,WUHU216HW,2013-07-10 23:40:00,
2013-07-10 16:59:00,84.2,56.6,29.54,SSE,158,3.1,3.1,39,0.00,,,0.00,WUHU216HW,2013-07-10 23:59:00,
2013-07-10 17:04:00,84.2,56.6,29.54,NE,45,1.6,3.1,39,0.00,,,0.00,WUHU216HW,2013-07-11 00:04:00,
2013-07-10 17:09:00,84.2,56.6,29.54,NE,45,1.6,2.5,39,0.00,,,0.00,WUHU216HW,2013-07-11 00:09:00,
2013-07-10 17:30:00,84.4,57.6,29.53,SE,135,0.7,0.7,40,0.00,,,0.00,WUHU216HW,2013-07-11 00:30:00,
2013-07-10 17:35:00,84.4,57.6,29.53,ESE,113,0.4,0.7,40,0.00,,,0.00,WUHU216HW,2013-07-11 00:35:00,
2013-07-10 17:40:00,84.4,57.6,29.53,ESE,113,0.4,0.7,40,0.00,,,0.00,WUHU216HW,2013-07-11 00:40:00,
2013-07-10 17:59:00,84.2,57.4,29.53,East,90,2.5,2.5,40,0.00,,,0.00,WUHU216HW,2013-07-11 00:59:00,
2013-07-10 18:04:00,84.2,56.6,29.53,SE,135,1.3,2.5,39,0.00,,,0.00,WUHU216HW,2013-07-11 01:04:00,
2013-07-10 18:09:00,84.2,56.6,29.53,SE,135,1.3,2.5,39,0.00,,,0.00,WUHU216HW,2013-07-11 01:09:00,
2013-07-10 18:30:00,83.5,56.0,29.53,East,90,1.1,1.1,39,0.00,,,0.00,WUHU216HW,2013-07-11 01:30:00,
2013-07-10 18:35:00,83.5,56.0,29.53,ESE,113,2.0,2.0,39,0.00,,,0.00,WUHU216HW,2013-07-11 01:35:00,
2013-07-10 18:40:00,83.5,56.0,29.53,ESE,113,2.0,2.0,39,0.00,,,0.00,WUHU216HW,2013-07-11 01:40:00,